Starlink 30073

operational
NORAD ID: 56840 Int'l Des: 2023-079 Owner: SPXS Country: US Constellation: starlink
LEOCIRCULAR

About Starlink 30073

Description loading...

Live Position

Loading 3D Globe...

Upcoming Passes

Altitude History

Altitude vs Time

uPlot chart will show altitude changes over time

Two-Line Element Set

1 56840U 23079T 25354.25003472 .00166884 00000-0 73469-3 0 9991
2 56840 42.9741 36.3594 0001416 24.3715 175.6001 15.83286442 5969
Epoch: Dec 20, 2025 • Age: 9 hours

Current Status

Altitude 322.4 km
Velocity 7.72 km/s
Sub-Earth Point 39.10°N, 147.02°E
Launch Date Jun 4, 2023
Age 2.5 years
Type internet

Technical Details

Classification Payload
Mass 730.00 kg
Dry Mass 700.00 kg
Total Mass 730.00 kg
Length 0.30 m
Diameter 4.10 m
Span 29.00 m
Shape Box + pan
Manufacturer SPXS
Bus Type Starlink V2M
Phase Status In Orbit
Owner/State SPXS/US

Large Constellations

Loading constellations...